Vancouver, WA

4:50 PM PDT on September 29, 2016 (GMT -0700)
Pearson

Weather History for KVUO - January, 2014

Change the Weather History Date:

Thursday, January 23, 2014

  Actual Average Record
Temperature  
Mean Temperature 39 °F 42 °F  
Max Temperature 50 °F 49 °F 61 °F (1953)
Min Temperature 28 °F 36 °F 11 °F (1949)
Degree Days  
Heating Degree Days 26    
Month to date heating degree days 553  
Since 1 July heating degree days 2551  
Cooling Degree Days 0    
Month to date cooling degree days 0  
Year to date cooling degree days 0  
Moisture  
Dew Point 30 °F    
Average Humidity 69    
Maximum Humidity 96    
Minimum Humidity 42    
Precipitation  
Precipitation 0.00 in 0.16 in 2.05 in (1965)
Month to date precipitation 1.87 4.23  
Year to date precipitation 1.87 4.23  
Sea Level Pressure  
Sea Level Pressure 30.39 in    
Wind  
Wind Speed 8 mph (ESE)    
Max Wind Speed 28 mph    
Max Gust Speed 38 mph    
Visibility 8 miles    
Events Fog    
T = Trace of Precipitation, MM = Missing Value Source: NWS Daily Summary

Daily Weather History Graph

Daily Weather History Graph

Search for Another Location

Airport or City:

Trip Planner

Search our weather history database for the weather conditions in past years. The results will help you decide how hot, cold, wet, or windy it might be!

Date:

Astronomy

Jan. 23, 2014 Rise Set
Actual Time 7:41 AM PST 5:04 PM PST
Civil Twilight 7:08 AM PST 5:36 PM PST
Nautical Twilight 6:32 AM PST 6:12 PM PST
Astronomical Twilight 5:57 AM PST 6:48 PM PST
Moon 12:03 AM PST (1/23) 10:56 AM PST (1/23)
Length of Visible Light 10h 27m
Length of Day
9h 23m
Waning Gibbous, 54% of the Moon is Illuminated
Jan 23
Waning Gibbous
Jan 23
Last Quarter
Jan 30
New
Feb 6
First Quarter
Feb 14
Full

Hourly Weather History & Observations

Time (PST) Temp. Windchill Dew Point Humidity Pressure Visibility Wind Dir Wind Speed Gust Speed Precip Events Conditions
12:53 AM 34.0 °F - 30.0 °F 85% 30.38 in 10.0 mi Calm Calm - N/A   Clear
1:53 AM 32.0 °F 28.7 °F 28.9 °F 88% 30.39 in 10.0 mi WSW 3.5 mph - N/A   Clear
2:53 AM 33.1 °F - 28.9 °F 85% 30.38 in 10.0 mi Calm Calm - N/A   Clear
3:53 AM 34.0 °F - 28.9 °F 82% 30.39 in 10.0 mi Calm Calm - N/A   Clear
4:53 AM 32.0 °F - 28.0 °F 85% 30.39 in 10.0 mi Calm Calm - N/A   Clear
5:53 AM 30.0 °F - 28.0 °F 92% 30.39 in 10.0 mi Calm Calm - N/A   Clear
6:22 AM 30.0 °F - 28.0 °F 92% 30.39 in 7.0 mi Calm Calm - N/A   Scattered Clouds
6:29 AM 32.0 °F - 30.0 °F 92% 30.39 in 2.0 mi Calm Calm - N/A   Mostly Cloudy
6:31 AM 33.1 °F 30.0 °F 30.9 °F 92% 30.39 in 1.0 mi Variable 3.5 mph - N/A   Mist
6:34 AM 34.0 °F - 32.0 °F 92% 30.39 in 0.8 mi Calm Calm - N/A   Mist
6:53 AM 33.1 °F - 32.0 °F 96% 30.40 in 0.5 mi Calm Calm - N/A Fog Fog
6:57 AM 34.0 °F - 32.0 °F 92% 30.40 in 1.8 mi Calm Calm - N/A   Mostly Cloudy
7:00 AM 32.0 °F - 32.0 °F 100% 30.40 in 3.0 mi Calm Calm - N/A   Mostly Cloudy
7:09 AM 33.1 °F 28.7 °F 32.0 °F 96% 30.40 in 2.0 mi NNW 4.6 mph - N/A   Mostly Cloudy
7:15 AM 33.1 °F - 32.0 °F 96% 30.40 in 3.0 mi Calm Calm - N/A   Scattered Clouds
7:53 AM 33.1 °F - 32.0 °F 96% 30.41 in 4.0 mi Calm Calm - N/A   Clear
8:53 AM 42.1 °F 39.2 °F 30.9 °F 65% 30.42 in 10.0 mi ENE 4.6 mph - N/A   Clear
9:53 AM 46.0 °F 39.9 °F 30.0 °F 54% 30.42 in 10.0 mi East 13.8 mph 19.6 mph N/A   Clear
10:53 AM 48.0 °F - 28.9 °F 48% 30.41 in 10.0 mi East 23.0 mph 34.5 mph N/A   Clear
11:53 AM 48.9 °F - 30.0 °F 48% 30.40 in 10.0 mi ESE 12.7 mph 20.7 mph N/A   Clear
12:53 PM 50.0 °F - 28.9 °F 44% 30.39 in 10.0 mi East 19.6 mph 34.5 mph N/A   Clear
1:53 PM 50.0 °F - 28.9 °F 44% 30.37 in 10.0 mi East 16.1 mph 35.7 mph N/A   Clear
2:53 PM 50.0 °F - 28.9 °F 44% 30.35 in 10.0 mi ESE 23.0 mph 33.4 mph N/A   Clear
3:53 PM 48.0 °F - 28.9 °F 48% 30.36 in 10.0 mi ESE 11.5 mph 21.9 mph N/A   Clear
4:53 PM 45.0 °F 40.6 °F 30.0 °F 56% 30.36 in 10.0 mi SE 8.1 mph - N/A   Clear
5:53 PM 41.0 °F 35.2 °F 28.9 °F 62% 30.36 in 10.0 mi ESE 9.2 mph - N/A   Clear
6:53 PM 39.0 °F 31.8 °F 30.0 °F 70% 30.37 in 10.0 mi ESE 11.5 mph - N/A   Clear
7:53 PM 39.9 °F 35.1 °F 30.0 °F 68% 30.38 in 10.0 mi East 6.9 mph - N/A   Clear
8:53 PM 39.0 °F - 28.9 °F 67% 30.40 in 10.0 mi Calm Calm - N/A   Clear
9:53 PM 45.0 °F 38.9 °F 28.0 °F 52% 30.40 in 10.0 mi ESE 12.7 mph 20.7 mph N/A   Clear
10:53 PM 43.0 °F 40.3 °F 28.0 °F 56% 30.41 in 10.0 mi East 4.6 mph - N/A   Clear
11:53 PM 45.0 °F 40.1 °F 28.0 °F 52% 30.41 in 10.0 mi East 9.2 mph 17.3 mph N/A   Clear